Content
SEND FEEDBACK

United States of America Flag

PUT IN BAY, OHIO


Home > North America > United States > Ohio
Elevation: 171 meters     Latitude: 41 39N     Longitude: 082 48W

WEATHER
 
SELECT A DAY
Number of Records: 134,709;   Date Range: 12/10/00 - 3/22/16
 
SHARE

PRINT THIS DATA

[ ← Previous Day ]
WEATHER ALMANAC - 21 FEBRUARY, 2014
[ Next Day → ]
[ °F ]   °C
Weather ElementAverageHighLow
Temperature2.2 °C8.3 °C (1:00 am)0.5 °C (5:00 pm)
Dewpoint-1.9 °C5.8 °C (1:00 am)-6.6 °C (9:00 pm)
Humidity73.8 %85 % (2:00 am)55 % (7:00 pm)
Barometer1002.7 hPa1009.5 hPa (11:00 pm)996.6 hPa (1:00 am)
Wind Speed32 km/h38.9 km/h (2:00 pm)
Wind Gust57.5 km/h (6:00 pm)
Weather ElementAverage
Wind DirectionWSW (232.6 °)

Weather ElementTotal
Precipitation0.25 mm
Heating Degree Days13.9 (Base 18.3)
Averaged from 27 records on 21 February, 2014
WEATHER CONDITIONS BREAKOUT
WIND DIRECTION BREAKOUT
WEATHER BY HOUR - 21 FEBRUARY, 2014
[ °F ]   °C
Local TimeTemperatureDewpointHumidityBarometerVisibilityWind DirectionWind SpeedGust SpeedPrecipitationEventsConditions
1:00 AM8.3 °C5.6 °C79 %996.6 hPaSSW (210°)27.8 km/h
1:00 AM8.3 °C5.8 °C84 %996.6 hPaSSW (210°)27.8 km/h40.7 km/h
2:00 AM5.1 °C2.7 °C85 %998 hPaSW (230°)33.3 km/h50.1 km/h0.25 mm
3:00 AM2.8 °C-0.2 °C81 %998.6 hPaWSW (250°)35.2 km/h46.3 km/h
4:00 AM2.4 °C-0.7 °C80 %999.3 hPaWSW (240°)31.5 km/h40.7 km/h
5:00 AM2 °C-0.7 °C82 %1000.3 hPaSW (230°)24.1 km/h
6:00 AM2 °C-1 °C81 %1001.4 hPaSW (220°)24.1 km/h37 km/h
7:00 AM1.7 °C-1.1 °C76 %1001 hPaSW (230°)27.8 km/h
7:00 AM1.9 °C-1 °C81 %1001 hPaSW (230°)27.8 km/h38.9 km/h
8:00 AM1.8 °C-1.5 °C79 %1001 hPaSW (230°)25.9 km/h37 km/h
9:00 AM1.9 °C-1.4 °C79 %1001.7 hPaSW (230°)25.9 km/h40.7 km/h
10:00 AM1.8 °C-1.3 °C80 %1001.4 hPaSW (220°)35.2 km/h53.8 km/h
11:00 AM2.2 °C-1.9 °C75 %1001.7 hPaSW (230°)35.2 km/h48.1 km/h
12:00 PM1.8 °C-1.7 °C78 %1002.4 hPaSW (230°)31.5 km/h42.6 km/h
1:00 PM1.7 °C-2.2 °C66 %1002.4 hPaSW (230°)33.3 km/h
1:00 PM1.7 °C-2.3 °C75 %1002.4 hPaSW (230°)33.3 km/h46.3 km/h
2:00 PM1.6 °C-2.6 °C74 %1002.7 hPaSW (230°)38.9 km/h55.5 km/h
3:00 PM1.2 °C-2.8 °C75 %1003.4 hPaSW (230°)38.9 km/h55.5 km/h
4:00 PM1.4 °C-3.9 °C68 %1004.4 hPaWSW (240°)38.9 km/h55.5 km/h
5:00 PM0.5 °C-3.2 °C76 %1005.1 hPaWSW (240°)31.5 km/h50.1 km/h
6:00 PM1.3 °C-4.9 °C64 %1005.8 hPaWSW (250°)38.9 km/h57.5 km/h
7:00 PM1.1 °C-4.4 °C55 %1006.8 hPaWSW (240°)31.5 km/h
7:00 PM1.1 °C-4.6 °C66 %1006.8 hPaWSW (240°)31.5 km/h46.3 km/h
8:00 PM1 °C-5.4 °C63 %1007.8 hPaWSW (240°)33.3 km/h46.3 km/h
9:00 PM1 °C-6.6 °C57 %1008.5 hPaWSW (250°)38.9 km/h57.5 km/h
10:00 PM1.1 °C-5.2 °C63 %1009.1 hPaWSW (240°)31.5 km/h44.4 km/h
11:00 PM1.2 °C-3.7 °C70 %1009.5 hPaSW (230°)31.5 km/h46.3 km/h
Hourly data recorded from CXHA, located 0 kilometers away from Put In Bay, Ohio




STORIES FROM OUR PARTNERS